Location: Krakow
(50.0212°N, 19.9423°E)
Time: 13:30:50
(UTC+02:00)

NOAA 18 - Pass Details

Date: 05 May 2025
Orbit: 837 x 857 km, 98.8° (Epoch: 14 May)

Event Time Altitude Azimuth Distance (km) Brightness Sun altitude
Exits shadow 21:20:43 11° 109° (ESE) 2,397 7.0 -10.7°
Maximum altitude 21:24:50 25° 58° (ENE) 1,656 6.6 -11.2°
Drops below altitude 10° 21:29:17 10° 5° (N) 2,501 8.2 -11.7°
Sets 21:32:01 0° 353° (N) 3,440 9.3 -12.0°
